Location: Observatory Park - Geauga Park District
(41.5832°N, 81.0716°W)
Time: 17:23:35
(UTC-04:00)

Tiangong - Pass Details

Date: 05 October 2021
Orbit: 382 x 385 km, 41.5° (Epoch: 19 October)

Event Time Altitude Azimuth Distance (km) Brightness Sun altitude
Exits shadow 05:16:59 25° 102° (ESE) 809 3.2 -24.6°
Drops below altitude 10° 05:18:27 10° 101° (E) 1,391 4.7 -24.4°
Sets 05:20:31 0° 100° (E) 2,242 6.0 -24.0°
